Weather in Podosinki

Russia / Smolensk Oblast     55°40′51″N   31°53′38″E
temp.,
°C
wind,
m/s
gust,
m/s
humid.,
%
clouds,
%
prec.,
mm/h
press.,
hPa
HPBL,
m
28 july, wed
wed2800:00+17sse2788100 0.1 1016135
03:00+16se2795100 0.6 1015147
06:00+17se2897100 0.3 1014345
09:00+17ese3898100 3.2 1012495
12:00+17se3799100 17.4 1011527
15:00+18sse1299100 17.7 1010194
18:00+19nnw249158 0.1 1010500
21:00+17ne11974 0.2 100913
29 july, thu
thu2900:00+16s11975 0.0 100912
03:00+16sw22989 0.0 100936
06:00+16wsw24978 0.1 100892
09:00+21w2476100 0.1 1008345
12:00+26w454887 0.0 10081721
15:00+25nw455696 0.0 1007627
18:00+25wnw3456100 0.0 1006631
21:00+18sw2496100 2.6 1006106
30 july, fri
fri3000:00+17ssw2599100 0.0 1006156
03:00+16wsw2799100 0.1 1006168
06:00+15w279721 0.0 1006156
09:00+18w279168 0.0 1007306
12:00+25w4742100 0.0 10062457
15:00+22wsw3752100 0.0 10061282
18:00+21w3754100 0.0 1006520
21:00+18sw2764100 0.0 1006217
31 july, sat
sat3100:00+16ssw397793 0.1 1005205
03:00+15sw3118312 0.1 1005299
06:00+15sw413755 0.0 1005480
09:00+20wsw612534 0.0 10051164
12:00+23wsw6945100 0.0 10051724
15:00+25wsw5840100 0.0 10062073
18:00+25wsw37397 0.0 10061869
21:00+18ssw1163100 0.0 100512
1 august, sun
sun100:00+20ssw51266100 0.0 1006566
03:00+16sse3897100 1.3 1004303
06:00+17sw51098100 4.1 1004655
09:00+19w489472 6.0 1005602
12:00+22w47665 0.8 10061247
15:00+25w57385 0.8 10062244
18:00+25wsw37448 0.0 10062273
21:00+19wnw1267100 0.0 100741